CW1459 Weather Reports


Display with metric or nautical units.
time (UTC)temp
F
wind
direction
speed
MPH
gust
MPH
rain 1hr
in
rain 24hr
in
rain mn
in
humidity
%
barometer
mb
20260902112315 72 163 0.0 0.0 0.00 0.00 0.00 94 1016.2
20260902111338 71 163 0.0 2.0 0.00 0.00 0.00 93 1016.4
20260902110313 71 163 1.0 4.0 0.00 0.00 0.00 93 1016.5
20260902105318 71 150 2.0 4.0 0.00 0.00 0.00 93 1016.6
20260902104328 72 196 1.0 3.0 0.00 0.00 0.00 93 1016.8
20260902103315 72 188 1.0 3.0 0.00 0.00 0.00 93 1016.6
20260902102314 72 108 1.0 2.0 0.00 0.00 0.00 93 1016.6
20260902101312 72 108 0.0 1.0 0.00 0.00 0.00 93 1016.6
20260902100319 72 108 0.0 1.0 0.00 0.00 0.00 93 1016.5
20260902095330 72 108 0.0 1.0 0.00 0.00 0.00 93 1016.6
20260902094311 72 108 0.0 0.0 0.00 0.00 0.00 93 1016.5
20260902093330 72 108 1.0 3.0 0.00 0.00 0.00 93 1016.3
20260902092342 72 108 0.0 0.0 0.00 0.00 0.00 93 1016.2
20260902091321 72 108 0.0 1.0 0.00 0.00 0.00 93 1016.3
20260902090321 72 108 0.0 0.0 0.00 0.00 0.00 92 1016.3
20260902085318 72 108 0.0 0.0 0.00 0.00 0.00 92 1016.2
20260902084321 72 108 0.0 1.0 0.00 0.00 0.00 92 1016.1
20260902083356 72 108 0.0 1.0 0.00 0.00 0.00 91 1016.2
20260902082320 72 108 0.0 1.0 0.00 0.00 0.00 91 1016.2
20260902081341 72 108 0.0 1.0 0.00 0.00 0.00 91 1016.2
20260902080317 72 108 0.0 1.0 0.00 0.00 0.00 91 1016.2
20260902075317 72 108 0.0 2.0 0.00 0.00 0.00 90 1016.2
20260902074317 73 108 0.0 1.0 0.00 0.00 0.00 90 1016.0
20260902073335 73 108 0.0 1.0 0.00 0.00 0.00 90 1016.0
20260902072315 73 108 1.0 2.0 0.00 0.00 0.00 89 1016.0
20260902071340 73 108 1.0 2.0 0.00 0.00 0.00 89 1015.8
20260902070338 73 108 0.0 2.0 0.00 0.00 0.00 89 1015.9
20260902065337 73 181 1.0 2.0 0.00 0.00 0.00 89 1015.8
20260902064339 73 181 0.0 2.0 0.00 0.00 0.00 89 1015.8
20260902063323 73 181 1.0 2.0 0.00 0.00 0.00 89 1015.8
20260902062318 74 181 0.0 2.0 0.00 0.00 0.00 88 1015.7
20260902061334 74 159 1.0 2.0 0.00 0.00 0.00 88 1015.6
20260902060318 74 159 1.0 2.0 0.00 0.00 0.00 87 1015.8
20260902055317 74 294 0.0 3.0 0.00 0.00 0.00 87 1015.7
20260902054317 74 125 0.0 2.0 0.00 0.00 0.00 86 1015.7
20260902053317 75 125 1.0 2.0 0.00 0.00 0.00 86 1015.9
20260902052318 75 125 2.0 3.0 0.00 0.00 0.00 85 1016.1
20260902051333 75 125 0.0 2.0 0.00 0.00 0.00 84 1016.1
20260902050337 76 125 1.0 3.0 0.00 0.00 0.00 84 1016.2
20260902045337 76 125 1.0 2.0 0.00 0.00 0.00 83 1016.3
20260902044339 76 125 1.0 2.0 0.00 0.00 0.00 82 1016.1
20260902043337 77 125 0.0 2.0 0.00 0.00 0.00 81 1015.9
20260902042333 77 125 0.0 3.0 0.00 0.00 0.00 81 1015.6
20260902041318 77 125 0.0 2.0 0.00 0.00 0.00 80 1015.7
20260902040337 77 125 1.0 2.0 0.00 0.00 0.00 80 1015.8
20260902035335 77 125 2.0 3.0 0.00 0.00 0.00 79 1015.6
20260902034339 77 125 2.0 3.0 0.00 0.00 0.00 79 1015.5
20260902033330 77 125 1.0 2.0 0.00 0.00 0.00 79 1015.4
20260902032328 78 125 1.0 2.0 0.00 0.00 0.00 79 1015.2
20260902031338 78 125 0.0 3.0 0.00 0.00 0.00 78 1015.0
20260902030335 78 125 1.0 3.0 0.00 0.00 0.00 78 1015.0
20260902025320 78 125 1.0 4.0 0.00 0.00 0.00 78 1014.9
20260902024333 78 235 1.0 3.0 0.00 0.00 0.00 78 1014.7
20260902023318 78 98 2.0 3.0 0.00 0.00 0.00 78 1014.4
20260902022320 78 152 1.0 5.0 0.00 0.00 0.00 78 1014.3
20260902021336 78 113 0.0 4.0 0.00 0.00 0.00 78 1014.4
20260902020318 79 128 1.0 3.0 0.00 0.00 0.00 77 1014.4
20260902015318 79 128 2.0 3.0 0.00 0.00 0.00 76 1014.5
20260902014320 80 128 1.0 2.0 0.00 0.00 0.00 74 1014.4
20260902013315 81 128 1.0 3.0 0.00 0.00 0.00 72 1014.4
20260902012315 83 128 2.0 3.0 0.00 0.00 0.00 70 1014.5
20260902011334 83 284 2.0 3.0 0.00 0.00 0.00 67 1014.6
20260902010334 84 272 1.0 6.0 0.00 0.00 0.00 66 1014.3
20260902005318 83 284 4.0 11.0 0.00 0.00 0.00 66 1013.7
20260902004338 84 244 2.0 4.0 0.00 0.00 0.00 67 1013.4
20260902003337 85 293 1.0 10.0 0.00 0.00 0.00 65 1013.3
20260902002340 85 265 4.0 10.0 0.00 0.00 0.00 65 1013.3
20260902001314 85 300 5.0 9.0 0.00 0.00 0.00 65 1013.1
20260902000331 85 257 2.0 9.0 0.00 0.00 0.00 66 1013.1
20260901235315 86 238 2.0 4.0 0.00 0.00 0.00 65 1013.0
20260901234335 86 241 2.0 5.0 0.00 0.00 0.00 64 1012.8
20260901233315 87 229 2.0 8.0 0.00 0.00 0.00 63 1012.7
20260901232315 88 250 3.0 7.0 0.00 0.00 0.00 62 1012.7
20260901231317 89 236 3.0 5.0 0.00 0.00 0.00 62 1012.6
20260901230355 90 246 2.0 9.0 0.00 0.00 0.00 59 1012.7
20260901225314 91 302 3.0 10.0 0.00 0.00 0.00 57 1012.7
20260901224339 91 315 2.0 8.0 0.00 0.00 0.00 56 1012.7
20260901223316 92 330 4.0 5.0 0.00 0.00 0.00 58 1012.7
20260901222340 92 304 2.0 7.0 0.00 0.00 0.00 55 1012.7
20260901221322 92 281 2.0 7.0 0.00 0.00 0.00 57 1012.7
20260901220320 91 297 3.0 5.0 0.00 0.00 0.00 56 1012.7
20260901215317 91 252 2.0 8.0 0.00 0.00 0.00 56 1012.7
20260901214316 92 309 4.0 9.0 0.00 0.00 0.00 55 1012.7
20260901213332 92 309 3.0 6.0 0.00 0.00 0.00 56 1012.9
20260901212321 91 288 5.0 10.0 0.00 0.00 0.00 54 1012.9
20260901211314 91 280 4.0 10.0 0.00 0.00 0.00 54 1012.9
20260901210338 92 280 6.0 13.0 0.00 0.00 0.00 53 1012.8
20260901205313 92 277 5.0 11.0 0.00 0.00 0.00 54 1012.9
20260901204322 93 322 4.0 10.0 0.00 0.00 0.00 52 1012.8
20260901203316 94 265 5.0 13.0 0.00 0.00 0.00 52 1012.9
20260901202329 94 315 8.0 13.0 0.00 0.00 0.00 50 1012.9
20260901201334 95 302 6.0 10.0 0.00 0.00 0.00 54 1013.0
20260901200335 95 316 6.0 12.0 0.00 0.00 0.00 51 1013.0
20260901195322 95 293 6.0 11.0 0.00 0.00 0.00 50 1013.0
20260901194317 95 269 6.0 12.0 0.00 0.00 0.00 51 1013.1
20260901193338 94 254 3.0 10.0 0.00 0.00 0.00 54 1013.2
20260901192337 93 257 2.0 10.0 0.00 0.00 0.00 54 1013.3
20260901191314 93 292 5.0 10.0 0.00 0.00 0.00 52 1013.5
20260901190315 94 297 8.0 12.0 0.00 0.00 0.00 52 1013.7
20260901185314 94 306 8.0 13.0 0.00 0.00 0.00 52 1013.7
20260901184321 93 309 5.0 10.0 0.00 0.00 0.00 54 1013.9
20260901183315 94 298 1.0 14.0 0.00 0.00 0.00 57 1013.9
20260901182358 93 320 4.0 8.0 0.00 0.00 0.00 61 1014.1
20260901181336 93 291 2.0 10.0 0.00 0.00 0.00 59 1014.2
20260901180314 92 327 5.0 9.0 0.00 0.00 0.00 62 1014.3
20260901175339 92 238 3.0 8.0 0.00 0.00 0.00 62 1014.3
20260901174317 90 180 3.0 7.0 0.00 0.00 0.00 65 1014.4
20260901173337 91 241 4.0 10.0 0.00 0.00 0.00 64 1014.2
20260901172358 89 202 5.0 8.0 0.00 0.00 0.00 68 1014.3
20260901171338 89 161 3.0 5.0 0.00 0.00 0.00 68 1014.4
20260901170317 88 182 3.0 7.0 0.00 0.00 0.00 69 1014.5
20260901165339 88 229 2.0 5.0 0.00 0.00 0.00 72 1014.7
20260901164320 88 292 2.0 5.0 0.00 0.00 0.00 70 1014.8
20260901163316 87 228 2.0 6.0 0.00 0.00 0.00 71 1014.8
20260901162317 87 173 2.0 4.0 0.00 0.00 0.00 71 1014.8
20260901161318 87 211 2.0 8.0 0.00 0.00 0.00 72 1015.1
20260901160316 87 233 1.0 8.0 0.00 0.00 0.00 67 1015.4
20260901155342 88 159 4.0 8.0 0.00 0.00 0.00 67 1015.3
20260901154330 87 249 2.0 7.0 0.00 0.00 0.00 71 1015.4
20260901153324 87 271 3.0 10.0 0.00 0.00 0.00 70 1015.5
20260901152312 87 217 5.0 8.0 0.00 0.00 0.00 68 1015.4
20260901151313 86 179 3.0 6.0 0.00 0.00 0.00 73 1015.4
20260901150335 84 208 3.0 6.0 0.00 0.00 0.00 76 1015.5
20260901145328 84 227 2.0 5.0 0.00 0.00 0.00 73 1015.6
20260901144319 84 175 4.0 6.0 0.00 0.00 0.00 73 1015.5
20260901143349 83 116 3.0 9.0 0.00 0.00 0.00 75 1015.7
20260901142312 83 244 3.0 9.0 0.00 0.00 0.00 75 1015.8
20260901141337 81 189 3.0 6.0 0.00 0.00 0.00 80 1015.8
20260901140335 79 209 2.0 5.0 0.00 0.00 0.00 81 1015.8
20260901135318 79 158 2.0 6.0 0.00 0.00 0.00 80 1015.9
20260901134312 79 178 3.0 5.0 0.00 0.00 0.00 81 1016.0
20260901133320 80 164 2.0 5.0 0.00 0.00 0.00 80 1016.0
20260901132331 79 180 3.0 5.0 0.00 0.00 0.00 81 1016.0
20260901131313 79 224 2.0 5.0 0.00 0.00 0.00 84 1016.0
20260901130334 77 126 3.0 6.0 0.00 0.00 0.00 87 1016.0
20260901125314 76 151 1.0 2.0 0.00 0.00 0.00 88 1016.2
20260901124315 76 204 1.0 2.0 0.00 0.00 0.00 88 1016.4
20260901123352 76 165 2.0 3.0 0.00 0.00 0.00 89 1016.3
20260901122314 75 170 2.0 3.0 0.00 0.00 0.00 90 1016.4
20260901121337 75 157 1.0 3.0 0.00 0.00 0.00 91 1016.4
20260901120316 74 202 1.0 3.0 0.00 0.00 0.00 92 1016.3
20260901115358 74 202 1.0 2.0 0.00 0.00 0.00 92 1016.3
20260901114314 73 202 0.0 2.0 0.00 0.00 0.00 92 1016.2
20260901113334 73 202 1.0 3.0 0.00 0.00 0.00 92 1016.2